Location: Newark
(48.1333°N, 17.1000°E)
Time: 14:40:34
(UTC+00:00)

Envisat - Visible Passes

Search period start: 20 January 2020 00:00
Search period end: 30 January 2020 00:00
Orbit: 764 x 766 km, 98.1° (Epoch: 20 January)

Date Brightness Start Highest point End Pass type
(mag) Time Alt. Az. Time Alt. Az. Time Alt. Az.
20 Jan 6.0 04:20:01 10° NE 04:23:10 16° E 04:26:17 10° SE visible
20 Jan 4.4 17:16:11 10° SSW 17:20:56 40° W 17:25:43 10° NNW visible
21 Jan 3.9 05:20:57 10° NNE 05:25:56 54° E 05:30:55 10° S visible
21 Jan 3.1 16:38:57 10° SSE 16:44:02 82° WSW 16:49:09 10° NNW visible
21 Jan 6.3 18:22:07 10° WSW 18:23:52 12° W 18:25:37 10° WNW visible
22 Jan 5.3 04:44:39 10° NE 04:48:56 27° E 04:53:11 10° SSE visible
22 Jan 3.2 16:02:28 10° SE 16:07:20 50° ENE 16:12:14 10° N visible
22 Jan 5.4 17:42:32 10° SSW 17:46:37 24° W 17:50:45 10° NW visible
23 Jan 6.2 04:09:25 10° ENE 04:11:43 13° E 04:14:01 10° ESE visible
23 Jan 3.1 05:46:21 10° NNE 05:51:29 90° ESE 05:56:33 10° SSW visible
23 Jan 4.0 17:04:40 10° S 17:09:35 49° W 17:14:32 10° NNW visible
24 Jan 4.3 05:09:44 10° NNE 05:14:37 44° E 05:19:26 10° S visible
24 Jan 3.0 16:27:40 10° SSE 16:32:44 81° ENE 16:37:51 10° NNW visible
24 Jan 6.1 18:09:36 10° WSW 18:12:25 15° W 18:15:14 10° NW visible
25 Jan 5.6 04:33:38 10° NE 04:37:32 22° E 04:41:24 10° SE visible
25 Jan 5.0 17:30:48 10° SSW 17:35:13 30° W 17:39:41 10° NNW visible
26 Jan 6.5 03:59:51 10° E 04:00:15 10° E 04:00:40 10° E visible
26 Jan 3.3 05:35:04 10° NNE 05:40:10 73° ESE 05:45:15 10° S visible
26 Jan 3.6 16:53:14 10° S 16:58:15 61° W 17:03:18 10° NNW visible
27 Jan 4.8 04:58:34 10° NNE 05:03:15 35° E 05:07:53 10° SSE visible
27 Jan 3.0 16:16:27 10° SSE 16:21:28 66° ENE 16:26:31 10° N visible
27 Jan 5.8 17:57:31 10° SW 18:00:58 18° W 18:04:28 10° NW visible
28 Jan 5.9 04:22:44 10° NE 04:26:07 18° E 04:29:29 10° SE visible
28 Jan 4.6 17:19:11 10° SSW 17:23:51 37° W 17:28:34 10° NNW visible
29 Jan 3.7 05:23:49 10° NNE 05:28:51 59° E 05:33:51 10° S visible
29 Jan 3.2 16:41:52 10° S 16:46:56 76° WSW 16:52:02 10° NNW visible
29 Jan 6.4 18:25:46 10° W 18:26:49 11° W 18:27:53 10° WNW visible
